{"data":{"norad_id":58842,"epoch":"2026-09-20T14:44:51.048672Z","epoch_age_seconds":142677,"freshness":"FRESH","line1":"1 58842U 24017S   26263.61447973  .00004016  00000+0  12995-3 0  9990","line2":"2 58842  53.1627  17.2483 0001273  78.1067 282.0078 15.34394841149924","mean_motion":15.34394841,"eccentricity":0.0001273,"inclination_deg":53.1627,"raan_deg":17.2483,"arg_perigee_deg":78.1067,"mean_anomaly_deg":282.0078,"bstar":0.00012995,"rev_number":14992,"period_min":93.848073619794,"perigee_km":461.84773297072,"apogee_km":463.58941479983,"semimajor_km":6840.8555738853,"source":"CELESTRAK","updated_at":"2026-09-21T09:00:33.985644Z"}}